This is the latest recevied weather packets stored in our database for station/object KO6LQJ. If no packets are shown the sender has not sent any weather packets the latest 10 day(s).
| Time | Temp. | Humidity | Pressure | Rain* | Wind** | Luminosity | Snow |
|---|---|---|---|---|---|---|---|
| 1777501908 | 24.44° C | 36% | 1016.5 hPa | 0 mm | - | 77 W/m² | - |
| 1777501605 | 24.44° C | 36% | 1016.4 hPa | 0 mm | - | 56 W/m² | - |
| 1777501302 | 24.44° C | 36% | 1016.5 hPa | 0 mm | - | 59 W/m² | - |
| 1777501000 | 24.44° C | 36% | 1016.4 hPa | 0 mm | - | 433 W/m² | - |
| 1777500697 | 24.44° C | 36% | 1016.5 hPa | 0 mm | - | 282 W/m² | - |
| 1777500394 | 24.44° C | 36% | 1016.6 hPa | 0 mm | - | 341 W/m² | - |
| 1777500090 | 25° C | 35% | 1016.6 hPa | 0 mm | - | 499 W/m² | - |
| 1777499787 | 25° C | 34% | 1016.6 hPa | 0 mm | - | 93 W/m² | - |
| 1777499483 | 24.44° C | 36% | 1016.7 hPa | 0 mm | - | 68 W/m² | - |
| 1777499182 | 24.44° C | 36% | 1016.7 hPa | 0 mm | - | 69 W/m² | - |
| 1777498878 | 25° C | 37% | 1016.7 hPa | 0 mm | - | 301 W/m² | - |
| 1777498574 | 25° C | 36% | 1016.5 hPa | 0 mm | - | 119 W/m² | - |
| 1777498270 | 25.56° C | 36% | 1016.7 hPa | 0 mm | - | 495 W/m² | - |
| 1777497970 | 25° C | 37% | 1016.4 hPa | 0 mm | - | 363 W/m² | - |
| 1777497670 | 25.56° C | 37% | 1016.6 hPa | 0 mm | - | 407 W/m² | - |
| 1777497367 | 25.56° C | 38% | 1016.5 hPa | 0 mm | - | 586 W/m² | - |
| 1777497063 | 26.11° C | 37% | 1016.4 hPa | 0 mm | - | 488 W/m² | - |
| 1777496759 | 26.11° C | 35% | 1016.6 hPa | 0 mm | - | 436 W/m² | - |
| 1777496456 | 25.56° C | 36% | 1016.7 hPa | 0 mm | - | 471 W/m² | - |
| 1777496153 | 26.11° C | 35% | 1016.7 hPa | 0 mm | - | 224 W/m² | - |
| 1777495849 | 26.11° C | 36% | 1016.8 hPa | 0 mm | - | 713 W/m² | - |
| 1777495545 | 25.56° C | 36% | 1016.8 hPa | 0 mm | - | 708 W/m² | - |
| 1777495241 | 26.11° C | 35% | 1016.9 hPa | 0 mm | - | 701 W/m² | - |
| 1777494939 | 25.56° C | 37% | 1016.6 hPa | 0 mm | - | 706 W/m² | - |
| 1777494636 | 26.11° C | 38% | 1016.8 hPa | 0 mm | - | 712 W/m² | - |
* Rain latest hour (hover to see other rain measurements)
** Current wind speed in m/s (hover to see current wind gust speed)